This demonstration page uses our WeatherBlox Daily Observations layout. Learn more.

Left ArrowRight Arrow

41.55636, -103.73856

Hourly Observations for June 28, 2022

Temp ( °F °C ) Dew Point ( °F °C ) Humidity (%) Winds ( mph kmh ) Pressure ( in mb ) Visibility ( mi km ) Precip ( " mm )
12:58 am 00:58 Clear 67 19.3 39 3.8 36 36 W 5 7 30.04 1017 10 16 0.00 0.00
1:58 am 01:58 Clear 65 18.3 38 3.4 37 37 Calm 30.04 1017 10 16 0.00 0.00
2:58 am 02:58 Clear 58 14.5 41 4.8 52 52 SW 7 11 30.06 1018 10 16 0.00 0.00
3:58 am 03:58 Clear 56 13.5 41 4.9 56 56 W 6 9 30.06 1018 10 16 0.00 0.00
4:58 am 04:58 Partly Cloudy 55 12.9 41 4.8 58 58 SSW 7 11 30.07 1018 10 16 0.00 0.00
5:58 am 05:58 Mostly Sunny 56 13.2 40 4.6 56 56 SSW 6 9 30.07 1018 10 16 0.00 0.00
6:58 am 06:58 Sunny 64 17.9 41 4.8 42 42 Calm 30.06 1018 10 16 0.00 0.00
7:58 am 07:58 Sunny 72 22.4 40 4.4 31 31 Calm 30.06 1018 10 16 0.00 0.00
8:58 am 08:58 Sunny 76 24.4 40 4.7 28 28 NNE 5 7 30.06 1018 10 16 0.00 0.00
9:58 am 09:58 Sunny 79 26.2 39 4 24 24 Calm 30.06 1018 10 16 0.00 0.00
10:58 am 10:58 Sunny 84 28.7 40 4.2 21 21 N 5 7 30.04 1017 10 16 0.00 0.00
11:58 am 11:58 Sunny 88 30.9 39 3.8 18 18 ESE 7 11 30.02 1017 10 16 0.00 0.00
12:58 pm 12:58 Sunny 90 32.1 36 2.2 15 15 ENE 8 13 30.00 1016 10 16 0.00 0.00
1:58 pm 13:58 Sunny 90 32.2 34 1.3 14 14 E 3 6 29.99 1016 10 16 0.00 0.00
2:58 pm 14:58 Sunny 92 33.3 34 1.1 13 13 ENE 9 15 29.98 1015 10 16 0.00 0.00
3:58 pm 15:58 Sunny 91 32.6 31 -0.5 12 12 ESE 5 7 29.96 1015 10 16 0.00 0.00
4:58 pm 16:58 Mostly Sunny 90 32.4 31 -0.7 12 12 E 7 11 29.94 1014 10 16 0.00 0.00
5:58 pm 17:58 Sunny 92 33.4 32 0.1 12 12 ESE 12 19 29.92 1013 10 16 0.00 0.00
6:58 pm 18:58 Sunny 91 32.5 31 -0.6 12 12 SE 10 17 29.91 1013 10 16 0.00 0.00
7:58 pm 19:58 Sunny 84 29.1 32 -0.2 15 15 ESE 10 17 29.89 1012 10 16 0.00 0.00
8:58 pm 20:58 Partly Cloudy 79 26 33 0.6 19 19 SE 13 20 29.92 1013 10 16 0.00 0.00
9:58 pm 21:58 Clear 82 27.5 31 -0.6 16 16 SSE 20 31 29.89 1012 10 16 0.00 0.00
10:58 pm 22:58 Clear 78 25.3 32 0 19 19 S 24 39 29.88 1012 10 16 0.00 0.00
11:58 pm 23:58 Clear 76 24.5 32 0.1 20 20 S 31 50 29.86 1011 10 16 0.00 0.00

Powered by AerisWeather